Regional Weather Roundup
Issued by NWS

Home | Current Version | Previous Version | Graphics & Text | Print | Product List | Glossary Off
Versions: 1 2 3 4 5 6 7 8 9 10 11 12 13 14 15 16 17 18 19 20 21 22 23 24 25 26 27 28 29 30 31 32 33 34 35 36 37 38 39 40 41 42 43 44 45 46 47 48 49 50

747
ASUS43 KDMX 241506
RWRIA

WEATHER ROUNDUP FOR IOWA
NATIONAL WEATHER SERVICE DES MOINES IA
1000 AM CDT FRI MAR 24 2017

NOTE: "FAIR" INDICATES FEW OR NO CLOUDS BELOW 12,000 FEET WITH NO
SIGNIFICANT WEATHER AND/OR OBSTRUCTIONS TO VISIBILITY.

* - THESE STATIONS ARE NOT NWS STATIONS...THUS NOT UNDER NWS
QUALITY CONTROL.  THEY ALSO DO NOT REPORT WEATHER SUCH
AS PRECIPITATION OR FOG.

IAZ001>003-012>014-020>022-031>034-043>046-241600-
   NORTHWEST IOWA

CITY           SKY/WX    TMP DP  RH WIND       PRES   REMARKS
CARROLL *      CLOUDY    45  45 100 N15       29.89R
CHEROKEE *     CLOUDY    40  40  99 N12G18    29.90R FOG     WCI  34
LE MARS *      CLOUDY    41  39  93 N16       29.94R
ORANGE CITY *  CLOUDY    39  37  93 N10       29.93R WCI  32
SHELDON *      CLOUDY    37  37 100 N17       29.91R FOG     WCI  28
SIOUX CITY     CLOUDY    42  40  92 N16       29.93R
SPENCER        LGT RAIN  39  38  96 N15       29.91R FOG     WCI  31
STORM LAKE *   CLOUDY    41  39  93 N21       29.88R FOG
$$

IAZ055>058-069>071-079>083-090>094-241600-
   SOUTHWEST IOWA

CITY           SKY/WX    TMP DP  RH WIND       PRES   REMARKS
ATLANTIC *     CLOUDY    52  50  93 N18       29.85R
AUDUBON *      CLOUDY    46  43  87 N9        29.88R FOG
CLARINDA *     CLOUDY    59  55  88 S8        29.86R
COUNCIL BLFS * LGT RAIN  50  50 100 N15       29.85R
CRESTON *      PTSUNNY   59  52  77 S13G18    29.85R
HARLAN  *      CLOUDY    46  46 100 N15G23    29.89R
LAMONI         CLOUDY    65  48  54 S12       29.83R
RED OAK *      LGT RAIN  59  54  82 W5        29.84R
SHENANDOAH *   LGT RAIN  57  54  88 CALM      29.82R
$$

IAZ047>049-059>061-072>074-084-241600-
   CENTRAL IOWA

CITY           SKY/WX    TMP DP  RH WIND       PRES   REMARKS
AMES           CLOUDY    49  45  86 NW8       29.85R
ANKENY *       MOSUNNY   64  50  59 SW9       29.83R
BOONE *        DRIZZLE   46  45  93 NE10      29.81R
CHARITON *     PTSUNNY   64  48  55 S15G22    29.82S
DES MOINES     CLOUDY    65  49  56 SW8       29.82R
GRINNELL*      CLOUDY    62  49  62 SW5       29.84R
MARSHALLTOWN   CLOUDY    56  47  71 N13       29.82R
NEWTON *       CLOUDY    63  48  59 SW8       29.82R
PELLA *          N/A     69  47  46 S16G25    29.82F
PERRY *        PTSUNNY   47  44  89 N10       29.83R
$$

IAZ004>006-015-016-023>025-035-036-241600-
   NORTH CENTRAL IOWA

CITY           SKY/WX    TMP DP  RH WIND       PRES   REMARKS
ALGONA *       CLOUDY    39  39 100 N16       29.88F FOG     WCI  30
CLARION *      CLOUDY    43  43 100 NE15G22   29.82F FOG
ESTHERVILLE    CLOUDY    37  37 100 N15       29.91R FOG     WCI  28
FORT DODGE *   CLOUDY    43  37  81 N8G18     29.86R
MASON CITY     LGT RAIN  41  39  93 N9        29.90R FOG
FOREST CITY *  RAIN      41  41 100 N13       29.87F
WEBSTER CITY * CLOUDY    43  43 100 N16       29.79F
IOWA FALLS *   CLOUDY    46  41  82 N9        29.87R
$$

IAZ007>011-017>019-026>030-037>042-050>054-066-241600-
   NORTHEAST IOWA

CITY           SKY/WX    TMP DP  RH WIND       PRES   REMARKS
CEDAR RAPIDS   CLOUDY    65  51  60 S17       29.82R
CHARLES CITY * CLOUDY    45  45 100 N12       29.86S
CLINTON *      MOSUNNY   70  50  49 SW26G35   29.86F
DECORAH *      CLOUDY    45  41  87 N7        29.87R
DUBUQUE        CLOUDY    59  49  69 SW13      29.85R
MONTICELLO *   PTSUNNY   63  50  63 SW14      29.84R
OELWEIN *      CLOUDY    52  48  87 NW13G20   29.85R
WATERLOO       CLOUDY    49  42  77 NW13      29.86R
$$

IAZ064-065-067-068-078-241600-
   EAST CENTRAL IOWA

CITY           SKY/WX    TMP DP  RH WIND       PRES   REMARKS
DAVENPORT      SUNNY     67  48  50 SW20G35   29.87S
IOWA CITY      CLOUDY    67  50  54 SW16      29.86R
MUSCATINE *    CLOUDY    68  50  52 S17G23    29.87S
QUAD CITIES    SUNNY     69  48  47 SW23G31   29.86S
$$

IAZ062-063-075>077-085>089-095>099-241600-
   SOUTHEAST IOWA

CITY           SKY/WX    TMP DP  RH WIND       PRES   REMARKS
BURLINGTON     SUNNY     69  51  52 S18G26    29.89R
FAIRFIELD *    CLOUDY    70  48  46 S17G24    29.86S
FORT MADISON * SUNNY     72  50  46 S14G22    29.91R
KEOKUK *       SUNNY     68  48  49 S17G24    29.89S
OSKALOOSA *    PTSUNNY   67  49  52 S21       29.84S
CENTERVILLE *    N/A     68  46  45 S17G23    29.86S
OTTUMWA        CLOUDY    69  48  47 S17       29.84S
WASHINGTON *   CLOUDY    66  50  55 S18       29.87R
$$

ABBREVIATIONS USED IN REMARKS
   TC - TEMPERATURES IN CELSIUS
  WCI - WIND CHILL INDEX
   HX - HEAT INDEX
  VSB - VISIBILITY
$$





USA.gov is the U.S. government's official web portal to all federal, state and local government web resources and services.